{"data":{"norad_id":66636,"intl_designator":"2025-271V","name":"STARLINK-35968","alt_names":[],"object_type":"PAYLOAD","status":"ACTIVE","operator":null,"country":"US","launch_date":"2025-11-23","launch_site_code":"AFWTR","launch_vehicle":null,"mission":null,"orbit_class":"UNKNOWN","rcs_meters":null,"size_class":null,"mass_kg":null,"dimensions":null,"purposes":["comms"],"wikipedia_slug":null,"has_3d_model":false,"image_url":null,"decayed_at":null,"tle_current":{"epoch":"2026-09-20T20:53:14.705376Z","epoch_age_seconds":54511,"freshness":"FRESH","line1":"1 66636U 25271V   26263.87030909  .00012867  00000+0  39128-3 0  9998","line2":"2 66636  53.1583 311.6502 0001572  56.0528 304.0624 15.34400447 47476","mean_motion":15.34400447,"eccentricity":0.0001572,"inclination_deg":53.1583,"raan_deg":311.6502,"arg_perigee_deg":56.0528,"mean_anomaly_deg":304.0624,"bstar":0.00039128,"rev_number":4747,"period_min":93.8477307417,"perigee_km":461.62653175232,"apogee_km":463.77729150613,"semimajor_km":6840.8389116292,"source":"CELESTRAK","updated_at":"2026-09-21T09:00:35.986002Z"}}}